Weather History for PAFA - March, 2014

Change the Weather History Date:

Sunday, March 16, 2014

  Actual Average Record
Temperature  
Mean Temperature 8 °F 11 °F  
Max Temperature 27 °F 25 °F 46 °F (1937)
Min Temperature -12 °F -3 °F -40 °F (1959)
Degree Days  
Heating Degree Days 57 54  
Month to date heating degree days 885 923  
Since 1 July heating degree days 10277 11313  
Cooling Degree Days 0 0  
Month to date cooling degree days 0 0  
Year to date cooling degree days 0 0  
Moisture  
Dew Point -3 °F    
Average Humidity 64    
Maximum Humidity 83    
Minimum Humidity 33    
Precipitation  
Precipitation 0.00 in 0.01 in 0.45 in (1918)
Month to date precipitation 0.20 0.15  
Year to date precipitation 0.82 1.15  
Snow  
Snow 0.00 in 0.10 in 4.50 in (1918)
Month to date snowfall 2.6 2.8  
Since 1 July snowfall 45.5 59.1  
Snow Depth 21.00 in    
Sea Level Pressure  
Sea Level Pressure 29.64 in    
Wind  
Wind Speed 2 mph (NNE)    
Max Wind Speed 6 mph    
Max Gust Speed -    
Visibility 10 miles    
Events      
T = Trace of Precipitation, MM = Missing Value Source: NWS Daily Summary

Daily Weather History Graph

Daily Weather History Graph

Search for Another Location

Airport or City:

Trip Planner

Search our weather history database for the weather conditions in past years. The results will help you decide how hot, cold, wet, or windy it might be!

Date:

Astronomy

Mar. 16, 2014 Rise Set
Actual Time 8:05 AM AKDT 7:55 PM AKDT
Civil Twilight 7:17 AM AKDT 8:44 PM AKDT
Nautical Twilight 6:18 AM AKDT 9:43 PM AKDT
Astronomical Twilight 5:13 AM AKDT 10:50 PM AKDT
Moon 8:43 PM AKDT (3/16) 7:44 AM AKDT (3/16)
Length of Visible Light 13h 27m
Length of Day
11h 50m
Full, 100% of the Moon is Illuminated
Mar 16
Full
Mar 23
Last Quarter
Mar 30
New
Apr 7
First Quarter
Apr 14
Full

Hourly Weather History & Observations

Time (AKDT) Temp. Windchill Dew Point Humidity Pressure Visibility Wind Dir Wind Speed Gust Speed Precip Events Conditions
12:53 AM -4.0 °F -12.4 °F -9.9 °F 76% 29.68 in 10.0 mi South 3.5 mph - N/A   Clear
1:53 AM -4.0 °F - -9.9 °F 76% 29.68 in 10.0 mi Calm Calm - N/A   Partly Cloudy
2:53 AM -7.1 °F -15.9 °F -13.0 °F 75% 29.68 in 10.0 mi North 3.5 mph - N/A   Clear
3:53 AM -5.1 °F - -11.0 °F 76% 29.68 in 10.0 mi Calm Calm - N/A   Clear
4:53 AM -2.0 °F -10.1 °F -8.0 °F 76% 29.68 in 10.0 mi NNE 3.5 mph - N/A   Clear
5:53 AM -11.0 °F -22.8 °F -16.1 °F 78% 29.67 in 10.0 mi North 4.6 mph - N/A   Clear
6:53 AM -9.9 °F -21.5 °F -15.0 °F 78% 29.67 in 10.0 mi NE 4.6 mph - N/A   Clear
7:53 AM -7.1 °F - -11.9 °F 79% 29.65 in 10.0 mi Calm Calm - N/A   Scattered Clouds
8:53 AM -9.0 °F - -16.1 °F 71% 29.66 in 10.0 mi Calm Calm - N/A   Partly Cloudy
9:53 AM -6.0 °F -14.7 °F -11.9 °F 75% 29.65 in 10.0 mi NE 3.5 mph - N/A   Partly Cloudy
10:53 AM -0.9 °F - -5.1 °F 83% 29.65 in 10.0 mi Calm Calm - N/A   Partly Cloudy
11:53 AM 6.1 °F -0.9 °F -0.0 °F 76% 29.65 in 10.0 mi NE 3.5 mph - N/A   Partly Cloudy
12:53 PM 10.0 °F 0.4 °F -0.9 °F 61% 29.64 in 10.0 mi NE 5.8 mph - N/A   Partly Cloudy
1:53 PM 16.0 °F 8.8 °F 1.9 °F 54% 29.63 in 10.0 mi NNE 4.6 mph - N/A   Partly Cloudy
2:53 PM 21.0 °F - 5.0 °F 50% 29.62 in 10.0 mi Calm Calm - N/A   Partly Cloudy
3:53 PM 23.0 °F - 6.1 °F 48% 29.61 in 10.0 mi Calm Calm - N/A   Partly Cloudy
4:53 PM 26.1 °F - 6.1 °F 43% 29.60 in 10.0 mi Calm Calm - N/A   Mostly Cloudy
5:53 PM 26.1 °F - 6.1 °F 43% 29.60 in 10.0 mi Calm Calm - N/A   Mostly Cloudy
6:53 PM 19.0 °F 13.9 °F 5.0 °F 54% 29.60 in 10.0 mi North 3.5 mph - N/A   Mostly Cloudy
7:53 PM 18.0 °F 12.7 °F 6.1 °F 60% 29.60 in 10.0 mi NNE 3.5 mph - N/A   Mostly Cloudy
8:53 PM 10.9 °F 2.9 °F 1.0 °F 64% 29.60 in 10.0 mi NE 4.6 mph - N/A   Mostly Cloudy
9:53 PM 16.0 °F 10.4 °F 3.9 °F 59% 29.60 in 10.0 mi NNE 3.5 mph - N/A   Mostly Cloudy
10:53 PM 10.0 °F - 1.9 °F 70% 29.62 in 10.0 mi Calm Calm - N/A   Mostly Cloudy
11:53 PM 10.9 °F - 1.9 °F 67% 29.62 in 10.0 mi Calm Calm - N/A   Mostly Cloudy